{"data":{"norad_id":60053,"intl_designator":"2024-112R","name":"STARLINK-31793","alt_names":[],"object_type":"PAYLOAD","status":"ACTIVE","operator":null,"country":"US","launch_date":"2024-06-08","launch_site_code":"AFWTR","launch_vehicle":null,"mission":null,"orbit_class":"UNKNOWN","rcs_meters":null,"size_class":null,"mass_kg":null,"dimensions":null,"purposes":["comms"],"wikipedia_slug":null,"has_3d_model":false,"image_url":null,"decayed_at":null,"tle_current":{"epoch":"2026-05-25T02:48:28.334304Z","epoch_age_seconds":64976,"freshness":"FRESH","line1":"1 60053U 24112R   26145.11699461 -.00000014  00000+0  11653-4 0  9994","line2":"2 60053  53.1604  83.3069 0001298  93.9314 266.1835 15.30194775110299","mean_motion":15.30194775,"eccentricity":0.0001298,"inclination_deg":53.1604,"raan_deg":83.3069,"arg_perigee_deg":93.9314,"mean_anomaly_deg":266.1835,"bstar":1.1653e-5,"rev_number":11029,"period_min":94.105667038368,"perigee_km":474.34110324829,"apogee_km":476.12023749552,"semimajor_km":6853.3676703719,"source":"CELESTRAK","updated_at":"2026-05-25T13:38:19.155232Z"}}}